Location: Cisewo
(53.3833°N, 14.9000°E)
Time: 13:09:33
(UTC+00:00)

USA 229 - Pass Details

Date: 04 August 2021
Orbit: 956 x 1256 km, 63.5° (Epoch: 08 August)

Event Time Altitude Azimuth Distance (km) Brightness Sun altitude
Rises 21:27:11 0° 312° (NW) 3,959 8.0 -16.4°
Reaches altitude 10° 21:29:58 10° 306° (NW) 3,041 7.0 -16.6°
Maximum altitude 21:36:39 41° 240° (WSW) 1,681 4.6 -17.0°
Enters shadow 21:41:11 21° 184° (S) 2,439 5.0 -17.3°
